Weather in Albufeira

Portugal     37°05′34″N   8°14′48″W
temp.,
°C
wind,
m/s
gust,
m/s
humid.,
%
clouds,
%
prec.,
mm/h
press.,
hPa
HPBL,
m
28 july, wed
wed2801:00+21n814590 0.0 1012220
04:00+20n610630 0.0 1011215
07:00+19n610680 0.0 1012247
10:00+24n45520 0.0 1012172
13:00+23ssw44590 0.0 1013323
16:00+24sw44630 0.0 1012187
19:00+25w56570 0.0 1010271
22:00+23nnw58590 0.0 101297
29 july, thu
thu2901:00+21nnw57630 0.0 101399
04:00+20nnw56650 0.0 101290
07:00+20n34660 0.0 101368
10:00+23nnw11560 0.0 1014166
13:00+24sw44540 0.0 1014333
16:00+24wsw56620 0.0 1013216
19:00+26wnw56500 0.0 1012265
22:00+22nnw710600 0.0 1014165
30 july, fri
fri3001:00+20nnw611580 0.0 1014218
04:00+19n814610 0.0 1013299
07:00+18nnw712720 0.0 1015321
10:00+24nnw811570 0.0 1015253
13:00+26wnw55520 0.0 1014444
16:00+29nw910410 0.0 1012563
19:00+26nw911460 0.0 1013282
22:00+21nw711670 0.0 1015241
31 july, sat
sat3101:00+20nnw814720 0.0 1016427
04:00+18nnw714800 0.0 1016513
07:00+18nnw713810 0.0 1016536
10:00+21nw79580 0.0 1017550
13:00+25nw894592 0.0 1016460
16:00+25wnw91142100 0.0 1015518
19:00+23nw101249100 0.0 1016419
22:00+20nw8135776 0.0 1017536
1 august, sun
sun101:00+18nnw81465100 0.0 1018559
04:00+17nnw71271100 0.0 1016546
07:00+18nnw71269100 0.0 1016597
10:00+20nnw695452 0.0 1017620
13:00+24wnw56440 0.0 1015446
16:00+26wnw910420 0.0 1013656
19:00+24nw1113480 0.0 1012306
22:00+21nnw9156183 0.0 1014356